Weather in Gabishevo

Russia / Republic of Tatarstan     55°36′41″N   49°08′31″E
temp.,
°C
wind,
m/s
gust,
m/s
humid.,
%
clouds,
%
prec.,
mm/h
press.,
hPa
HPBL,
m
13 may, thu
thu1300:00+17ese225543 0.0 102514
03:00+14ese226097 0.0 102512
06:00+16ese26626 0.0 1025162
09:00+21se584873 0.0 1024524
12:00+24se694281 0.0 10241192
15:00+24se584899 0.0 1022635
18:00+22se5106030 0.0 1021257
21:00+19se5146454 0.0 1021286
14 may, fri
fri1400:00+16se412715 0.0 1021231
03:00+15se377451 0.1 1021118
06:00+16sse496949 0.1 1021254
09:00+21s465668 0.1 1021460
12:00+25s5750100 0.0 1021966
15:00+25ssw5847100 0.0 10211006
18:00+23s36540 0.0 1020147
21:00+18s3668100 0.0 102093
15 may, sat
sat1500:00+16s357050 0.0 102085
03:00+15sse3568100 0.0 102071
06:00+17sse4106368 0.0 1020227
09:00+23s594689 0.0 1020421
12:00+26s7103670 0.0 1020783
15:00+26s6103796 0.0 1019949
18:00+23s4104969 0.0 1018253
21:00+18s495826 0.0 1018122
16 may, sun
sun1600:00+17s41158100 0.0 1018150
03:00+16s496061 0.0 1018128
06:00+18s3116366 0.0 1018249
09:00+24ssw59465 0.0 1018549
12:00+27ssw7103717 0.0 10181118
15:00+28ssw6936100 0.0 10171952
18:00+24ssw41048100 0.0 1016222
21:00+20sw355968 0.0 101670
17 may, mon
mon1700:00+18wsw226622 0.0 101718
03:00+17ssw22728 0.0 101813
06:00+19w116696 0.0 101883
09:00+24ssw11525 0.0 1018535
12:00+27s23425 0.0 10181173
15:00+28ssw244019 0.0 10171552
18:00+25ese22545 0.0 101740
21:00+19ssw6116586 1.7 1019176